This is the latest recevied weather packets stored in our database for station/object WD5U-1. If no packets are shown the sender has not sent any weather packets the latest 10 day(s).
| Time | Temp. | Humidity | Pressure | Rain* | Wind** | Luminosity | Snow |
|---|---|---|---|---|---|---|---|
| 1777840457 | 26.67° C | 36% | 1019.1 hPa | 0 mm | - | - | - |
| 1777840336 | 26.67° C | 38% | 1019 hPa | 0 mm | - | - | - |
| 1777840103 | 26.11° C | 40% | 1019.1 hPa | 0 mm | - | - | - |
| 1777839498 | 26.67° C | 37% | 1019.3 hPa | 0 mm | - | - | - |
| 1777839264 | 26.11° C | 36% | 1019.1 hPa | 0 mm | - | - | - |
| 1777839142 | 26.67° C | 37% | 1019.3 hPa | 0 mm | - | - | - |
| 1777838779 | 26.67° C | 36% | 1019.3 hPa | 0 mm | - | - | - |
| 1777838423 | 26.11° C | 38% | 1019.5 hPa | 0 mm | - | - | - |
| 1777838058 | 26.11° C | 38% | 1019.8 hPa | 0 mm | - | - | - |
| 1777837342 | 25.56° C | 40% | 1019.7 hPa | 0 mm | - | - | - |
| 1777836864 | 25.56° C | 41% | 1020.1 hPa | 0 mm | - | - | - |
| 1777836256 | 25.56° C | 40% | 1020.1 hPa | 0 mm | - | - | - |
| 1777836145 | 25.56° C | 40% | 1020.3 hPa | 0 mm | - | - | - |
| 1777834697 | 26.11° C | 38% | 1020.4 hPa | 0 mm | - | - | - |
| 1777834343 | 26.11° C | 43% | 1020.5 hPa | 0 mm | - | - | - |
| 1777833503 | 26.11° C | 42% | 1020.5 hPa | 0 mm | - | - | - |
| 1777833261 | 25.56° C | 41% | 1020.7 hPa | 0 mm | - | - | - |
| 1777832544 | 26.11° C | 46% | 1020.7 hPa | 0 mm | - | - | - |
| 1777831704 | 25.56° C | 46% | 1021.1 hPa | 0 mm | - | - | - |
| 1777831480 | 25.56° C | 45% | 1021.1 hPa | 0 mm | - | - | - |
| 1777830497 | 25° C | 49% | 1021.4 hPa | 0 mm | - | - | - |
| 1777830264 | 25° C | 49% | 1021.4 hPa | 0 mm | - | - | - |
| 1777829899 | 25° C | 48% | 1021.7 hPa | 0 mm | - | - | - |
| 1777828819 | 25° C | 49% | 1021.7 hPa | 0 mm | - | - | - |
| 1777828708 | 25° C | 51% | 1021.8 hPa | 0 mm | - | - | - |
* Rain latest hour (hover to see other rain measurements)
** Current wind speed in m/s (hover to see current wind gust speed)